Location: Unspecified
(48.8656°N, 0.0000°E)
Time: 05:30:14
(UTC+00:00)

Vanguard 1 Rocket - Pass Details

Date: 25 June 2019
Orbit: 650 x 4226 km, 34.3° (Epoch: 12 October)

Event Time Altitude Azimuth Distance (km) Brightness Sun altitude
Rises 21:18:13 0° 268° (W) 5,742 12.0 -9.0°
Reaches altitude 10° 21:24:06 10° 253° (WSW) 3,989 10.9 -9.6°
Maximum altitude 21:29:47 17° 217° (SW) 2,740 9.7 -10.1°
Drops below altitude 10° 21:33:56 10° 177° (S) 2,759 9.4 -10.5°
Enters shadow 21:34:18 - 174° (S) 2,811 9.4 -10.5°
Sets 21:36:59 0° 156° (SSE) 3,381 - -10.8°
